This demonstration page uses our WeatherBlox Daily Observations layout. Learn more.

Left ArrowRight Arrow

53.62937, 11.41316

Hourly Observations for June 8, 2015

Temp ( °F °C ) Dew Point ( °F °C ) Humidity (%) Winds ( mph kmh ) Pressure ( in mb ) Visibility ( mi km ) Precip ( " mm )
6:20 am 06:20 Mostly Sunny 43 6 43 6 100 100 SW 3 6 30.39 1029 7 11 N/A
6:50 am 06:50 Mostly Sunny 46 8 45 7 93 93 WNW 3 6 30.39 1029 7 11 N/A
7:20 am 07:20 Mostly Sunny 50 10 46 8 88 88 NW 3 6 30.39 1029 7 11 N/A
7:50 am 07:50 Mostly Sunny 52 11 46 8 82 82 WNW 5 7 30.42 1030 30 48 N/A
8:20 am 08:20 Mostly Sunny 54 12 46 8 77 77 N 6 9 30.42 1030 30 48 N/A
8:50 am 08:50 Partly Cloudy 54 12 45 7 72 72 NNW 6 9 30.39 1029 30 48 N/A
9:20 am 09:20 Partly Cloudy 55 13 45 7 67 67 VRB 5 7 30.39 1029 30 48 N/A
9:50 am 09:50 Partly Cloudy 57 14 43 6 59 59 NNW 6 9 30.39 1029 30 48 N/A
10:20 am 10:20 Mostly Cloudy 57 14 41 5 55 55 NNW 8 13 30.39 1029 30 48 N/A
10:50 am 10:50 Partly Cloudy 59 15 43 6 55 55 NNW 8 13 30.39 1029 30 48 N/A
11:20 am 11:20 Partly Cloudy 57 14 41 5 55 55 NNW 6 9 30.39 1029 30 48 N/A
11:50 am 11:50 Partly Cloudy 59 15 43 6 55 55 NW 9 15 30.39 1029 30 48 N/A
12:20 pm 12:20 Mostly Cloudy 59 15 39 4 48 48 VRB 6 9 30.39 1029 30 48 N/A
12:50 pm 12:50 Mostly Cloudy 57 14 41 5 55 55 NW 7 11 30.39 1029 30 48 N/A
1:20 pm 13:20 Mostly Cloudy 61 16 41 5 48 48 NNW 7 11 30.39 1029 30 48 N/A
1:50 pm 13:50 Partly Cloudy 61 16 39 4 45 45 NW 8 13 30.39 1029 30 48 N/A
2:20 pm 14:20 Mostly Cloudy 61 16 43 6 52 52 NW 8 13 30.39 1029 30 48 N/A
2:50 pm 14:50 Mostly Cloudy 61 16 41 5 48 48 NW 9 15 30.39 1029 30 48 N/A
3:20 pm 15:20 Mostly Sunny 61 16 41 5 48 48 NNW 9 15 30.36 1028 7 11 N/A
3:50 pm 15:50 Mostly Sunny 61 16 41 5 48 48 N 6 9 30.36 1028 7 11 N/A
4:20 pm 16:20 Mostly Sunny 61 16 41 5 48 48 NNW 7 11 30.36 1028 7 11 N/A
4:50 pm 16:50 Mostly Sunny 61 16 39 4 45 45 N 7 11 30.33 1027 7 11 N/A
5:20 pm 17:20 Mostly Sunny 61 16 41 5 48 48 NNW 9 15 30.33 1027 7 11 N/A
5:50 pm 17:50 Mostly Sunny 61 16 41 5 48 48 N 8 13 30.33 1027 7 11 N/A
6:20 pm 18:20 Mostly Cloudy 59 15 41 5 51 51 NNW 9 15 30.33 1027 30 48 N/A
6:50 pm 18:50 Mostly Cloudy 59 15 43 6 55 55 NNE 9 15 30.33 1027 30 48 N/A

Powered by AerisWeather